Weather History for Denver, CO

Change the Weather History Date:

Friday, December 7, 2012

  Actual Average Record
Temperature  
Mean Temperature 38 °F 30 °F  
Max Temperature 53 °F 43 °F 70 °F (1906)
Min Temperature 22 °F 17 °F -13 °F (2005)
Degree Days  
Heating Degree Days 27 35  
Month to date heating degree days 137 237  
Since 1 July heating degree days 1332 1619  
Cooling Degree Days 0 0  
Month to date cooling degree days 0 0  
Year to date cooling degree days 1236 769  
Moisture  
Dew Point 20 °F    
Average Humidity 55    
Maximum Humidity 81    
Minimum Humidity 29    
Precipitation  
Precipitation 0.00 in 0.01 in 0.35 in (1988)
Month to date precipitation 0.00 0.08  
Year to date precipitation 9.84 14.03  
Snow  
Snow 0.00 in - - ()
Month to date snowfall 0  
Since 1 July snowfall 7.2  
Snow Depth 0.00 in    
Sea Level Pressure  
Sea Level Pressure 29.84 in    
Wind  
Wind Speed 10 mph (ESE)    
Max Wind Speed 23 mph    
Max Gust Speed 28 mph    
Visibility 10 miles    
Events      
T = Trace of Precipitation, MM = Missing Value Source: NWS Daily Summary

Daily Weather History Graph

Daily Weather History Graph

Search for Another Location

Airport:

Trip Planner

Search our weather history database for the weather conditions in past years. The results will help you decide how hot, cold, wet, or windy it might be!

Date:

Astronomy

Dec. 07, 2012 Rise Set
Actual Time 7:07 AM MST 4:33 PM MST
Civil Twilight 6:36 AM MST 5:03 PM MST
Nautical Twilight 6:02 AM MST 5:37 PM MST
Astronomical Twilight 5:30 AM MST 6:10 PM MST
Moon 12:29 AM MST (12/7) 12:31 PM MST (12/7)
Length of Visible Light 10h 27m
Length of Day
9h 26m
Last Quarter, 38% of the Moon is Illuminated
Dec 7
Last Quarter
Dec 13
New
Dec 19
First Quarter
Dec 28
Full
Jan 4
Last Quarter

Hourly Weather History & Observations

Time (MST) Temp. Windchill Dew Point Humidity Pressure Visibility Wind Dir Wind Speed Gust Speed Precip Events Conditions
12:53 AM 30.9 °F 23.5 °F 25.0 °F 79% 29.80 in 10.0 mi SW 8.1 mph - N/A   Mostly Cloudy
1:53 AM 30.0 °F 25.2 °F 24.1 °F 79% 29.80 in 10.0 mi SW 4.6 mph - N/A   Mostly Cloudy
2:53 AM 32.0 °F 27.5 °F 24.1 °F 73% 29.77 in 10.0 mi SW 4.6 mph - N/A   Mostly Cloudy
3:53 AM 30.0 °F 23.2 °F 21.9 °F 72% 29.77 in 10.0 mi North 6.9 mph - N/A   Mostly Cloudy
4:53 AM 30.0 °F 21.7 °F 21.9 °F 72% 29.80 in 10.0 mi NW 9.2 mph - N/A   Mostly Cloudy
5:53 AM 28.9 °F 23.9 °F 21.0 °F 72% 29.82 in 10.0 mi Variable 4.6 mph - N/A   Mostly Cloudy
6:53 AM 23.0 °F - 18.0 °F 81% 29.87 in 10.0 mi Calm Calm - N/A   Mostly Cloudy
7:53 AM 25.0 °F 17.1 °F 19.0 °F 78% 29.87 in 10.0 mi ENE 6.9 mph - N/A   Mostly Cloudy
8:53 AM 37.9 °F 35.5 °F 23.0 °F 55% 29.84 in 10.0 mi SW 3.5 mph - N/A   Mostly Cloudy
9:53 AM 48.0 °F - 27.0 °F 44% 29.81 in 10.0 mi Calm Calm - N/A   Mostly Cloudy
10:53 AM 50.0 °F - 19.0 °F 29% 29.78 in 10.0 mi Calm Calm - N/A   Mostly Cloudy
11:53 AM 46.9 °F - 24.1 °F 41% 29.78 in 10.0 mi NE 20.7 mph - N/A   Mostly Cloudy
12:53 PM 44.1 °F 35.9 °F 21.0 °F 40% 29.80 in 10.0 mi ENE 19.6 mph - N/A   Mostly Cloudy
1:53 PM 43.0 °F 34.5 °F 21.0 °F 42% 29.80 in 10.0 mi East 19.6 mph - N/A   Mostly Cloudy
2:53 PM 43.0 °F 35.4 °F 19.9 °F 40% 29.81 in 10.0 mi East 16.1 mph - N/A   Mostly Cloudy
3:53 PM 39.9 °F 31.8 °F 19.0 °F 43% 29.86 in 10.0 mi East 15.0 mph - N/A   Mostly Cloudy
4:53 PM 33.1 °F 24.4 °F 17.1 °F 52% 29.91 in 10.0 mi East 11.5 mph - N/A   Mostly Cloudy
5:53 PM 30.2 °F 21.3 °F 17.6 °F 60% 29.90 in 10.0 mi ESE 10.4 mph - N/A   Mostly Cloudy
6:53 PM 33.8 °F 25.3 °F 17.6 °F 52% 29.91 in 10.0 mi ESE 11.5 mph - N/A   Mostly Cloudy
7:53 PM 33.1 °F 25.5 °F 18.0 °F 54% 29.98 in 10.0 mi SE 9.2 mph - N/A   Mostly Cloudy
8:53 PM 34.0 °F 25.5 °F 18.0 °F 52% 29.91 in 10.0 mi SE 11.5 mph - N/A   Overcast
9:53 PM 32.0 °F 24.2 °F 19.9 °F 61% 29.88 in 10.0 mi SSE 9.2 mph - N/A   Overcast
10:53 PM 30.0 °F 21.1 °F 19.0 °F 64% 29.86 in 10.0 mi SE 10.4 mph - N/A   Mostly Cloudy
11:53 PM 30.0 °F 19.1 °F 19.9 °F 66% 29.85 in 10.0 mi SSE 15.0 mph - N/A   Mostly Cloudy